Regional Weather Roundup
Issued by NWS

Home | Current Version | Previous Version | Graphics & Text | Print | Product List | Glossary On
Versions: 1 2 3 4 5 6 7 8 9 10 11 12 13 14 15 16 17 18 19 20 21 22 23 24 25 26 27 28 29 30 31 32 33 34 35 36 37 38 39 40 41 42 43 44 45 46 47 48 49 50
000
ASUS43 KMKX 271310
RWRWI

WISCONSIN REGIONAL WEATHER ROUNDUP
NATIONAL WEATHER SERVICE MILWAUKEE/SULLIVAN WI
700 AM CST TUE JAN 27 2015

NOTE: "FAIR" INDICATES FEW OR NO CLOUDS BELOW 12,000 FEET WITH NO
SIGNIFICANT WEATHER AND/OR OBSTRUCTIONS TO VISIBILITY.

WIZ001-002-006>008-014>016-023>028-271400-
NORTHWEST WISCONSIN

CITY           SKY/WX    TMP DP  RH WIND       PRES   REMARKS
SUPERIOR ARPT  CLOUDY    28  23  83 CALM      30.14R
ASHLAND        CLOUDY    27  21  78 NW3       30.11R
HAYWARD        CLOUDY    26  21  81 CALM      30.10R
SIREN          CLOUDY    28  22  77 CALM      30.12R
CUMBERLAND     CLOUDY    27  23  86 NE5       30.10R WCI  21
RICE LAKE      CLOUDY    27  24  87 N5        30.12R WCI  22
CHETEK         CLOUDY    27  24  87 CALM      30.11R
LADYSMITH      CLOUDY    26  22  82 N3        30.10R
EAU CLAIRE     CLOUDY    27  22  81 CALM      30.11R
MENOMONIE      CLOUDY    30  23  76 N10       30.11R WCI  21
NEW RICHMOND   CLOUDY    29  23  77 NE3       30.12R
OSCEOLA        CLOUDY    31  24  78 NE3       30.16R
$$

WIZ003>005-009-010-017-018-271400-
NORTH CENTRAL WISCONSIN

CITY           SKY/WX    TMP DP  RH WIND       PRES   REMARKS
MANITOWISH WTR CLOUDY    19  18  98 CALM      30.07R FOG
ARBOR VITAE    CLOUDY    22  20  93 CALM      30.07R FOG
WOODRUFF       CLOUDY    22  20  93 CALM      30.07R FOG
RHINELANDER    CLOUDY    20  18  92 E3        30.08R
EAGLE RIVER    CLOUDY    19  17  89 E3        30.06R
LAND O LAKES   CLOUDY    20  18  93 CALM      30.08R
PHILLIPS       CLOUDY    19  18  95 CALM      30.07R
TOMAHAWK       CLOUDY    20  18  93 CALM      30.09R
MEDFORD        CLOUDY    20  19  95 CALM      30.08R FOG
MERRILL        CLOUDY    21  20  95 CALM      30.09R
$$

WIZ029-030-035-036-043>047-271400-
CENTRAL WISCONSIN

CITY           SKY/WX    TMP DP  RH WIND       PRES   REMARKS
WAUSAU         CLOUDY    22  20  92 CALM      30.09R FOG
MOSINEE        CLOUDY    21  21 100 NE3       30.10
MARSHFIELD     CLOUDY    23  20  88 NE5       30.09R FOG     WCI  17
STEVENS POINT  CLOUDY    21  20  97 NE5       30.11R FOG     WCI  15
WAUPACA        CLOUDY    25  22  86 NE3       30.12R
WAUTOMA        CLOUDY    24  24 100 NE5       30.11R FOG     WCI  18
WISC RAPIDS    CLOUDY    23  19  85 NE7       30.12R WCI  15
CAMP DOUGLAS   CLOUDY    25  25 100 N3        30.11R FOG
$$

WIZ011>013-019>022-031-037>040-048>050-271400-
NORTHEAST WISCONSIN

CITY           SKY/WX    TMP DP  RH WIND       PRES   REMARKS
ANTIGO         CLOUDY    20  19  98 E6        30.08R FOG     WCI  12
SHAWANO        CLOUDY    24  21  88 E5        30.13R WCI  18
OCONTO         CLOUDY    22  18  87 CALM      30.15R
STURGEON BAY   CLOUDY    21  16  79 N5        30.16R WCI  15
GREEN BAY      CLOUDY    23  19  85 NE7       30.14R WCI  15
MANITOWOC      CLOUDY    24  18  77 CALM      30.13R
APPLETON       NOT AVBL
CLINTONVILLE   CLOUDY    23  21  93 NE6       30.12R WCI  16
OSHKOSH        CLOUDY    24  19  81 NE6       30.10R WCI  17
$$

WIZ032>034-041-042-053>061-271400-
SOUTHWEST WISCONSIN

CITY           SKY/WX    TMP DP  RH WIND       PRES   REMARKS
LA CROSSE      CLOUDY    31  22  69 NE6       30.12R WCI  25
SPARTA         CLOUDY    26  24  95 NE5       30.13R WCI  20
VIROQUA        CLOUDY    26  23  89 N5        30.08R WCI  20
BOSCOBEL       CLOUDY    30  23  75 N7        30.11R WCI  23
PRAIRIE DU CHI CLOUDY    31  22  69 N8        30.11R WCI  23
PLATTEVILLE    CLOUDY    28  24  88 N14       30.08R WCI  16
$$

WIZ056-057-062-063-064-067-068-271400-
SOUTH CENTRAL WISCONSIN

CITY           SKY/WX    TMP DP  RH WIND       PRES   REMARKS
REEDSBURG      CLOUDY    24  21  91 N5        30.10R WCI  18
BARABOO/DELLS  CLOUDY    23  21  93 N3        30.09R FOG
LONE ROCK      CLOUDY    26  22  84 NE3       30.11R
MINERAL POINT  CLOUDY    28  27  93 N7        30.07R WCI  21
MADISON        CLOUDY    24  22  91 N7        30.08R FOG     WCI  16
MIDDLETON      CLOUDY    26  24  91 N6        30.09R WCI  19
WATERTOWN      CLOUDY    25  24  99 CALM      30.08R FOG
MONROE         CLOUDY    25  25 100 N9G16     30.06R WCI  15
JANESVILLE     CLOUDY    27  25  93 N5        30.07R WCI  21
$$

WIZ051-052-058>065-066-070>072-271400-
SOUTHEAST WISCONSIN

CITY           SKY/WX    TMP DP  RH WIND       PRES   REMARKS
MILWAUKEE      CLOUDY    27  20  75 NE8       30.09R WCI  19
WAUKESHA       CLOUDY    25  21  86 E7        30.08R WCI  17
MILWAUKEE/TIMM CLOUDY    27  19  74 E5        30.10R WCI  21
RACINE         CLOUDY    27  20  75 NE7       30.10R WCI  19
BURLINGTON     CLOUDY    24  23  95 N5        30.07R FOG     WCI  18
KENOSHA        CLOUDY    28  21  75 NE7       30.07R WCI  21
FOND DU LAC    CLOUDY    25  19  78 NE6       30.10R WCI  18
SHEBOYGAN      CLOUDY    25  17  72 NE8       30.11R WCI  16
WEST BEND      CLOUDY    27  21  80 NE8       30.08R WCI  18
JUNEAU         CLOUDY    25  23  93 NE5       30.09R FOG     WCI  19
$$

LSZ147-162-271400-
LAKE SUPERIOR

STATION/POSITION TIME  TEMP    WIND        PRES    WAVE
                       AIR SEA DIR/SP/G            HT/PER
                 (UTC) (F)     (DEG/KT/KT) (MB)    (FT/S)
DEVILS ISLAND    1300   29      30/  8/  9 1020.9R
PORT WING        1200   28     320/  5/  6 1020.0
SAXON HARBOR     1200   26      CALM  /  2 1019.3R
$$

LMZ867-665-643>646-271400-
LAKE MICHIGAN

STATION/POSITION TIME  TEMP    WIND        PRES    WAVE
                       AIR SEA DIR/SP/G            HT/PER
                 (UTC) (F)     (DEG/KT/KT) (MB)    (FT/S)
NORTHPORT PIER   1225   24      10/  3/  5 1020.7R
SISTER BAY       1228   20        CALM       N/A
KEWAUNEE LAKESHO 1200   25      70/  3/ 11 1018.7R
SHEBOYGAN LAKESH 1300   26      50/ 11/ 13 1021.1R
PORT WASHINGTON  1200   28      60/ 10/ 12 1019.3
KENOSHA   LAKESH 1300   29      60/  9/ 12 1019.0R
$$

TC  - TEMPERATURE IN CELSIUS
VSB - VISIBILITY IN STATUTE MILES
WCI - WIND CHILL INDEX
HX  - HEAT INDEX



USA.gov is the U.S. government's official web portal to all federal, state and local government web resources and services.